Regional Weather Roundup
Issued by NWS Kansas City/Pleasant Hill, MO

Home | Current Version | Previous Version | Graphics & Text | Print | Product List | Glossary Off
Versions: 1 2 3 4 5 6 7 8 9 10 11 12 13 14 15 16 17 18 19 20 21 22 23 24 25 26 27 28 29 30 31 32 33 34 35 36 37 38 39 40 41 42 43 44 45 46 47 48 49 50

000
ASUS43 KEAX 261610
RWREAX

WEATHER ROUNDUP FOR EASTERN KANSAS AND NORTHWEST MISSOURI
NATIONAL WEATHER SERVICE KANSAS CITY/PLEASANT HILL MO
1100 AM CDT MON SEP 26 2016

KSZ040-057-103>105-MOZ028-029-037-043-261700-
...KANSAS CITY METROPOLITAN AREA...

CITY           SKY/WX    TMP DP  RH WIND       PRES   REMARKS
K.C. INTL      SUNNY     64  46  52 VRB6      30.28R
K.C. DOWNTOWN  SUNNY     66  46  48 VRB5      30.27R
LEES SUMMIT    SUNNY     64  46  52 W5        30.28R
OLATHE - IXD   SUNNY     64  46  52 NW5       30.29S
OLATHE - OJC   SUNNY     63  43  48 W6        30.29R
LAWRENCE       SUNNY     66  50  56 NW5       30.29R

$$

MOZ001>008-011>017-020>025-030>033-038>040-044>046-053-054-261700-
...NORTHERN AND CENTRAL MISSOURI...

CITY           SKY/WX    TMP DP  RH WIND       PRES   REMARKS
ST. JOSEPH     SUNNY     67  43  41 W8        30.26S
MOSBY          SUNNY     68  39  34 NW8       30.27R
WHITEMAN AFB   MOSUNNY   68  40  36 N8        30.24F
CLINTON        SUNNY     66  45  45 N6        30.27S
SEDALIA        SUNNY     69  41  36 NW9       30.26S
WARSAW         NOT AVBL
CHILLICOTHE      N/A     67  43  41 NW8       30.24S
KIRKSVILLE     SUNNY     66  42  41 NW12      30.22R

$$

MOZ041-047>049-056>058-063>065-088>090-097-261700-
...EASTERN AND SOUTHERN MISSOURI...

CITY           SKY/WX    TMP DP  RH WIND       PRES   REMARKS
ST. LOUIS INTL NOT AVBL
SPIRIT OF STL  MOSUNNY   69  50  50 NW9       30.18S
COLUMBIA       SUNNY     66  45  46 NW8       30.23R
JEFFERSON CITY SUNNY     67  49  52 VRB6      30.23R
ROLLA          SUNNY     66  47  50 N12       30.22R
OSAGE BEACH    SUNNY     66  45  46 VRB6      30.26R
SPRINGFIELD    SUNNY     67  46  47 N17       30.26R
BRANSON        MOSUNNY   63  55  77 N12       30.26S
JOPLIN         SUNNY     67  46  47 N10       30.29R
WEST PLAINS    CLOUDY    67  51  56 N9        30.24R

$$

IAZ060-094-KSZ022-034>040-054-083-096-NEZ052-066-093-261700-
...KANSAS...SOUTHEAST NEBRASKA AND IOWA...

CITY           SKY/WX    TMP DP  RH WIND       PRES   REMARKS
TOPEKA         SUNNY     64  48  56 W7        30.29S
MANHATTAN      SUNNY     64  47  53 W5        30.31S
EMPORIA        SUNNY     65  46  50 VRB5      30.31S
CHANUTE        SUNNY     67  46  47 N8        30.30S
WICHITA        MOSUNNY   67  41  38 NE5       30.33S
OMAHA          SUNNY     66  40  38 W14       30.23F
LINCOLN        SUNNY     69  41  36 W10       30.27F
FALLS CITY     SUNNY     65  45  48 W7        30.26S
LAMONI         SUNNY     65  43  44 NW14G20   30.21F
DES MOINES     SUNNY     66  41  40 NW16      30.16S

$$




USA.gov is the U.S. government's official web portal to all federal, state and local government web resources and services.